Location: Castillon
(43.1358°N, 0.8654°E)
Time: 19:57:44
(UTC+00:00)

YAOGAN 1 - Pass Details

Date: 24 January 2021
Orbit: 618 x 620 km, 97.9° (Epoch: 28 February)

Event Time Altitude Azimuth Distance (km) Brightness Sun altitude
Rises 18:00:29 0° 144° (SE) 2,885 5.8 -11.4°
Reaches altitude 10° 18:02:47 10° 136° (SE) 1,984 4.9 -11.8°
Maximum altitude 18:06:44 36° 70° (ENE) 986 3.1 -12.5°
Drops below altitude 10° 18:10:43 10° 4° (N) 1,997 5.0 -13.2°
Sets 18:13:02 0° 356° (N) 2,908 5.9 -13.6°
